owner,sensor,date,latitude,longitude,air_pressure(mBar),qcFlag 
COMPS,ioos:station:USF.COMPS:C13:1,2017-08-01T00:05:00Z,26.0630,-83.0730,1011.97,1111122 
COMPS,ioos:station:USF.COMPS:C13:1,2017-08-01T00:35:00Z,26.0630,-83.0730,1012.09,1111122 
COMPS,ioos:station:USF.COMPS:C13:1,2017-08-01T01:05:00Z,26.0630,-83.0730,1012.4,1111122 
COMPS,ioos:station:USF.COMPS:C13:1,2017-08-01T01:35:00Z,26.0630,-83.0730,1012.83,1111122 
COMPS,ioos:station:USF.COMPS:C13:1,2017-08-01T02:05:00Z,26.0630,-83.0730,1012.97,1111122 
COMPS,ioos:station:USF.COMPS:C13:1,2017-08-01T02:35:00Z,26.0630,-83.0730,1013.34,1111122 
COMPS,ioos:station:USF.COMPS:C13:1,2017-08-01T03:05:00Z,26.0630,-83.0730,1013.54,1111122 
COMPS,ioos:station:USF.COMPS:C13:1,2017-08-01T03:35:00Z,26.0630,-83.0730,1013.41,1111122 
COMPS,ioos:station:USF.COMPS:C13:1,2017-08-01T04:05:00Z,26.0630,-83.0730,1013.16,1111122 
COMPS,ioos:station:USF.COMPS:C13:1,2017-08-01T04:35:00Z,26.0630,-83.0730,1013.31,1111122 
COMPS,ioos:station:USF.COMPS:C13:1,2017-08-01T05:05:00Z,26.0630,-83.0730,1013.12,1111122 
COMPS,ioos:station:USF.COMPS:C13:1,2017-08-01T05:35:00Z,26.0630,-83.0730,1012.84,1111122 
COMPS,ioos:station:USF.COMPS:C13:1,2017-08-01T06:05:00Z,26.0630,-83.0730,1012.53,1111122 
COMPS,ioos:station:USF.COMPS:C13:1,2017-08-01T06:35:00Z,26.0630,-83.0730,1012.2,1111122 
COMPS,ioos:station:USF.COMPS:C13:1,2017-08-01T07:05:00Z,26.0630,-83.0730,1012.42,1111122 
COMPS,ioos:station:USF.COMPS:C13:1,2017-08-01T07:35:00Z,26.0630,-83.0730,1011.88,1111122 
COMPS,ioos:station:USF.COMPS:C13:1,2017-08-01T08:05:00Z,26.0630,-83.0730,1011.73,1111122 
COMPS,ioos:station:USF.COMPS:C13:1,2017-08-01T08:35:00Z,26.0630,-83.0730,1011.69,1111122 
COMPS,ioos:station:USF.COMPS:C13:1,2017-08-01T09:05:00Z,26.0630,-83.0730,1011.86,1111122 
COMPS,ioos:station:USF.COMPS:C13:1,2017-08-01T09:35:00Z,26.0630,-83.0730,1012.0,1111122 
COMPS,ioos:station:USF.COMPS:C13:1,2017-08-01T10:05:00Z,26.0630,-83.0730,1012.09,1111122 
COMPS,ioos:station:USF.COMPS:C13:1,2017-08-01T10:35:00Z,26.0630,-83.0730,1012.36,1111122 
COMPS,ioos:station:USF.COMPS:C13:1,2017-08-01T11:05:00Z,26.0630,-83.0730,1012.43,1111122 
COMPS,ioos:station:USF.COMPS:C13:1,2017-08-01T11:35:00Z,26.0630,-83.0730,1012.65,1111122 
COMPS,ioos:station:USF.COMPS:C13:1,2017-08-01T12:05:00Z,26.0630,-83.0730,1013.16,1111122 
COMPS,ioos:station:USF.COMPS:C13:1,2017-08-01T12:35:00Z,26.0630,-83.0730,1013.5,1111122 
COMPS,ioos:station:USF.COMPS:C13:1,2017-08-01T13:05:00Z,26.0630,-83.0730,1013.98,1111122 
COMPS,ioos:station:USF.COMPS:C13:1,2017-08-01T13:35:00Z,26.0630,-83.0730,1014.17,1111122 
COMPS,ioos:station:USF.COMPS:C13:1,2017-08-01T14:05:00Z,26.0630,-83.0730,1014.29,1111122 
COMPS,ioos:station:USF.COMPS:C13:1,2017-08-01T14:35:00Z,26.0630,-83.0730,1014.46,1111122 
COMPS,ioos:station:USF.COMPS:C13:1,2017-08-01T15:05:00Z,26.0630,-83.0730,1014.42,1111122 
COMPS,ioos:station:USF.COMPS:C13:1,2017-08-01T15:35:00Z,26.0630,-83.0730,1014.59,1111122 
COMPS,ioos:station:USF.COMPS:C13:1,2017-08-01T16:05:00Z,26.0630,-83.0730,1014.77,1111122 
COMPS,ioos:station:USF.COMPS:C13:1,2017-08-01T16:35:00Z,26.0630,-83.0730,1014.34,1111122 
COMPS,ioos:station:USF.COMPS:C13:1,2017-08-01T17:05:00Z,26.0630,-83.0730,1013.98,1111122 
COMPS,ioos:station:USF.COMPS:C13:1,2017-08-01T17:35:00Z,26.0630,-83.0730,1014.05,1111122 
COMPS,ioos:station:USF.COMPS:C13:1,2017-08-01T18:05:00Z,26.0630,-83.0730,1014.2,1111122 
COMPS,ioos:station:USF.COMPS:C13:1,2017-08-01T18:35:00Z,26.0630,-83.0730,1013.98,1111122 
COMPS,ioos:station:USF.COMPS:C13:1,2017-08-01T19:05:00Z,26.0630,-83.0730,1013.8,1111122 
COMPS,ioos:station:USF.COMPS:C13:1,2017-08-01T19:35:00Z,26.0630,-83.0730,1013.13,1111122 
COMPS,ioos:station:USF.COMPS:C13:1,2017-08-01T20:05:00Z,26.0630,-83.0730,1013.39,1111122 
COMPS,ioos:station:USF.COMPS:C13:1,2017-08-01T20:35:00Z,26.0630,-83.0730,1013.36,1111122 
COMPS,ioos:station:USF.COMPS:C13:1,2017-08-01T21:05:00Z,26.0630,-83.0730,1013.57,1111122 
COMPS,ioos:station:USF.COMPS:C13:1,2017-08-01T21:35:00Z,26.0630,-83.0730,1014.01,1111122 
COMPS,ioos:station:USF.COMPS:C13:1,2017-08-01T22:05:00Z,26.0630,-83.0730,1013.9,1111122 
COMPS,ioos:station:USF.COMPS:C13:1,2017-08-01T22:35:00Z,26.0630,-83.0730,1014.84,1111122 
COMPS,ioos:station:USF.COMPS:C13:1,2017-08-01T23:05:00Z,26.0630,-83.0730,1015.15,1111122 
COMPS,ioos:station:USF.COMPS:C13:1,2017-08-01T23:35:00Z,26.0630,-83.0730,1015.34,1111122 
COMPS,ioos:station:USF.COMPS:C13:1,2017-08-02T00:05:00Z,26.0630,-83.0730,1014.96,1111122 
COMPS,ioos:station:USF.COMPS:C13:1,2017-08-02T00:35:00Z,26.0630,-83.0730,1015.2,1111122 
COMPS,ioos:station:USF.COMPS:C13:1,2017-08-02T01:05:00Z,26.0630,-83.0730,1015.84,1111122 
COMPS,ioos:station:USF.COMPS:C13:1,2017-08-02T01:35:00Z,26.0630,-83.0730,1015.85,1111122 
COMPS,ioos:station:USF.COMPS:C13:1,2017-08-02T02:05:00Z,26.0630,-83.0730,1016.03,1111122 
COMPS,ioos:station:USF.COMPS:C13:1,2017-08-02T02:35:00Z,26.0630,-83.0730,1016.37,1111122 
COMPS,ioos:station:USF.COMPS:C13:1,2017-08-02T03:05:00Z,26.0630,-83.0730,1016.18,1111122 
COMPS,ioos:station:USF.COMPS:C13:1,2017-08-02T03:35:00Z,26.0630,-83.0730,1016.18,1111122 
COMPS,ioos:station:USF.COMPS:C13:1,2017-08-02T04:05:00Z,26.0630,-83.0730,1016.6,1111122 
COMPS,ioos:station:USF.COMPS:C13:1,2017-08-02T04:35:00Z,26.0630,-83.0730,1016.53,1111122 
COMPS,ioos:station:USF.COMPS:C13:1,2017-08-02T05:05:00Z,26.0630,-83.0730,1015.81,1111122 
COMPS,ioos:station:USF.COMPS:C13:1,2017-08-02T05:35:00Z,26.0630,-83.0730,1015.2,1111122 
COMPS,ioos:station:USF.COMPS:C13:1,2017-08-02T06:05:00Z,26.0630,-83.0730,1014.37,1111122 
COMPS,ioos:station:USF.COMPS:C13:1,2017-08-02T06:35:00Z,26.0630,-83.0730,1013.99,1111122 
COMPS,ioos:station:USF.COMPS:C13:1,2017-08-02T07:05:00Z,26.0630,-83.0730,1014.08,1111122 
COMPS,ioos:station:USF.COMPS:C13:1,2017-08-02T07:35:00Z,26.0630,-83.0730,1014.15,1111122 
COMPS,ioos:station:USF.COMPS:C13:1,2017-08-02T08:05:00Z,26.0630,-83.0730,1013.9,1111122 
COMPS,ioos:station:USF.COMPS:C13:1,2017-08-02T08:35:00Z,26.0630,-83.0730,1013.96,1111122 
COMPS,ioos:station:USF.COMPS:C13:1,2017-08-02T09:05:00Z,26.0630,-83.0730,1014.13,1111122 
COMPS,ioos:station:USF.COMPS:C13:1,2017-08-02T09:35:00Z,26.0630,-83.0730,1014.27,1111122 
COMPS,ioos:station:USF.COMPS:C13:1,2017-08-02T10:05:00Z,26.0630,-83.0730,1014.43,1111122 
COMPS,ioos:station:USF.COMPS:C13:1,2017-08-02T10:35:00Z,26.0630,-83.0730,1014.86,1111122 
COMPS,ioos:station:USF.COMPS:C13:1,2017-08-02T11:05:00Z,26.0630,-83.0730,1015.33,1111122 
COMPS,ioos:station:USF.COMPS:C13:1,2017-08-02T11:35:00Z,26.0630,-83.0730,1015.6,1111122 
COMPS,ioos:station:USF.COMPS:C13:1,2017-08-02T12:05:00Z,26.0630,-83.0730,1015.79,1111122 
COMPS,ioos:station:USF.COMPS:C13:1,2017-08-02T12:35:00Z,26.0630,-83.0730,1016.14,1111122 
COMPS,ioos:station:USF.COMPS:C13:1,2017-08-02T13:05:00Z,26.0630,-83.0730,1016.4,1111122 
COMPS,ioos:station:USF.COMPS:C13:1,2017-08-02T13:35:00Z,26.0630,-83.0730,1016.43,1111122 
COMPS,ioos:station:USF.COMPS:C13:1,2017-08-02T14:05:00Z,26.0630,-83.0730,1016.59,1111122 
COMPS,ioos:station:USF.COMPS:C13:1,2017-08-02T14:35:00Z,26.0630,-83.0730,1016.79,1111122 
COMPS,ioos:station:USF.COMPS:C13:1,2017-08-02T15:05:00Z,26.0630,-83.0730,1016.83,1111122 
COMPS,ioos:station:USF.COMPS:C13:1,2017-08-02T15:35:00Z,26.0630,-83.0730,1016.96,1111122 
COMPS,ioos:station:USF.COMPS:C13:1,2017-08-02T16:05:00Z,26.0630,-83.0730,1017.11,1111122 
COMPS,ioos:station:USF.COMPS:C13:1,2017-08-02T16:35:00Z,26.0630,-83.0730,1016.92,1111122 
COMPS,ioos:station:USF.COMPS:C13:1,2017-08-02T17:05:00Z,26.0630,-83.0730,1016.94,1111122 
COMPS,ioos:station:USF.COMPS:C13:1,2017-08-02T17:35:00Z,26.0630,-83.0730,1016.67,1111122 
COMPS,ioos:station:USF.COMPS:C13:1,2017-08-02T18:05:00Z,26.0630,-83.0730,1016.41,1111122 
COMPS,ioos:station:USF.COMPS:C13:1,2017-08-02T18:35:00Z,26.0630,-83.0730,1016.41,1111122 
COMPS,ioos:station:USF.COMPS:C13:1,2017-08-02T19:05:00Z,26.0630,-83.0730,1016.12,1111122 
COMPS,ioos:station:USF.COMPS:C13:1,2017-08-02T19:35:00Z,26.0630,-83.0730,1015.75,1111122 
COMPS,ioos:station:USF.COMPS:C13:1,2017-08-02T20:05:00Z,26.0630,-83.0730,1015.95,1111122 
COMPS,ioos:station:USF.COMPS:C13:1,2017-08-02T20:35:00Z,26.0630,-83.0730,1015.95,1111122 
COMPS,ioos:station:USF.COMPS:C13:1,2017-08-02T21:05:00Z,26.0630,-83.0730,1015.77,1111122 
COMPS,ioos:station:USF.COMPS:C13:1,2017-08-02T21:35:00Z,26.0630,-83.0730,1015.75,1111122 
COMPS,ioos:station:USF.COMPS:C13:1,2017-08-02T22:05:00Z,26.0630,-83.0730,1016.09,1111122 
COMPS,ioos:station:USF.COMPS:C13:1,2017-08-02T22:35:00Z,26.0630,-83.0730,1016.17,1111122 
COMPS,ioos:station:USF.COMPS:C13:1,2017-08-02T23:05:00Z,26.0630,-83.0730,1016.05,1111122 
COMPS,ioos:station:USF.COMPS:C13:1,2017-08-02T23:35:00Z,26.0630,-83.0730,1016.36,1111122 
COMPS,ioos:station:USF.COMPS:C13:1,2017-08-03T00:05:00Z,26.0630,-83.0730,1016.42,1111122 
COMPS,ioos:station:USF.COMPS:C13:1,2017-08-03T00:35:00Z,26.0630,-83.0730,1016.63,1111122 
COMPS,ioos:station:USF.COMPS:C13:1,2017-08-03T01:05:00Z,26.0630,-83.0730,1016.82,1111122 
COMPS,ioos:station:USF.COMPS:C13:1,2017-08-03T01:35:00Z,26.0630,-83.0730,1016.89,1111122 
COMPS,ioos:station:USF.COMPS:C13:1,2017-08-03T02:05:00Z,26.0630,-83.0730,1017.28,1111122 
COMPS,ioos:station:USF.COMPS:C13:1,2017-08-03T02:35:00Z,26.0630,-83.0730,1017.49,1111122 
COMPS,ioos:station:USF.COMPS:C13:1,2017-08-03T03:05:00Z,26.0630,-83.0730,1017.77,1111122 
COMPS,ioos:station:USF.COMPS:C13:1,2017-08-03T03:35:00Z,26.0630,-83.0730,1017.52,1111122 
COMPS,ioos:station:USF.COMPS:C13:1,2017-08-03T04:05:00Z,26.0630,-83.0730,1017.49,1111122 
COMPS,ioos:station:USF.COMPS:C13:1,2017-08-03T04:35:00Z,26.0630,-83.0730,1017.36,1111122 
COMPS,ioos:station:USF.COMPS:C13:1,2017-08-03T05:05:00Z,26.0630,-83.0730,1017.22,1111122 
COMPS,ioos:station:USF.COMPS:C13:1,2017-08-03T05:35:00Z,26.0630,-83.0730,1017.22,1111122 
COMPS,ioos:station:USF.COMPS:C13:1,2017-08-03T06:05:00Z,26.0630,-83.0730,1016.95,1111122 
COMPS,ioos:station:USF.COMPS:C13:1,2017-08-03T06:35:00Z,26.0630,-83.0730,1016.95,1111122 
COMPS,ioos:station:USF.COMPS:C13:1,2017-08-03T07:05:00Z,26.0630,-83.0730,1016.56,1111122 
COMPS,ioos:station:USF.COMPS:C13:1,2017-08-03T07:35:00Z,26.0630,-83.0730,1016.42,1111122 
COMPS,ioos:station:USF.COMPS:C13:1,2017-08-03T08:05:00Z,26.0630,-83.0730,1016.37,1111122 
COMPS,ioos:station:USF.COMPS:C13:1,2017-08-03T08:35:00Z,26.0630,-83.0730,1016.18,1111122 
COMPS,ioos:station:USF.COMPS:C13:1,2017-08-03T09:05:00Z,26.0630,-83.0730,1016.37,1111122 
COMPS,ioos:station:USF.COMPS:C13:1,2017-08-03T09:35:00Z,26.0630,-83.0730,1016.34,1111122 
COMPS,ioos:station:USF.COMPS:C13:1,2017-08-03T10:05:00Z,26.0630,-83.0730,1016.47,1111122 
COMPS,ioos:station:USF.COMPS:C13:1,2017-08-03T10:35:00Z,26.0630,-83.0730,1016.57,1111122 
COMPS,ioos:station:USF.COMPS:C13:1,2017-08-03T11:05:00Z,26.0630,-83.0730,1016.79,1111122 
COMPS,ioos:station:USF.COMPS:C13:1,2017-08-03T11:35:00Z,26.0630,-83.0730,1017.09,1111122 
COMPS,ioos:station:USF.COMPS:C13:1,2017-08-03T14:05:00Z,26.0630,-83.0730,1017.59,1111122 
COMPS,ioos:station:USF.COMPS:C13:1,2017-08-03T14:35:00Z,26.0630,-83.0730,1017.49,1111122 
COMPS,ioos:station:USF.COMPS:C13:1,2017-08-03T15:05:00Z,26.0630,-83.0730,1017.6,1111122 
COMPS,ioos:station:USF.COMPS:C13:1,2017-08-03T15:35:00Z,26.0630,-83.0730,1017.78,1111122 
COMPS,ioos:station:USF.COMPS:C13:1,2017-08-03T16:05:00Z,26.0630,-83.0730,1017.75,1111122 
COMPS,ioos:station:USF.COMPS:C13:1,2017-08-03T16:35:00Z,26.0630,-83.0730,1017.74,1111122 
COMPS,ioos:station:USF.COMPS:C13:1,2017-08-03T17:05:00Z,26.0630,-83.0730,1017.59,1111122 
COMPS,ioos:station:USF.COMPS:C13:1,2017-08-03T17:35:00Z,26.0630,-83.0730,1017.49,1111122 
COMPS,ioos:station:USF.COMPS:C13:1,2017-08-03T18:05:00Z,26.0630,-83.0730,1017.24,1111122 
COMPS,ioos:station:USF.COMPS:C13:1,2017-08-03T18:35:00Z,26.0630,-83.0730,1017.02,1111122 
COMPS,ioos:station:USF.COMPS:C13:1,2017-08-03T19:05:00Z,26.0630,-83.0730,1016.67,1111122 
COMPS,ioos:station:USF.COMPS:C13:1,2017-08-03T19:35:00Z,26.0630,-83.0730,1016.72,1111122 
COMPS,ioos:station:USF.COMPS:C13:1,2017-08-03T20:05:00Z,26.0630,-83.0730,1016.63,1111122 
COMPS,ioos:station:USF.COMPS:C13:1,2017-08-03T20:35:00Z,26.0630,-83.0730,1016.63,1111122 
COMPS,ioos:station:USF.COMPS:C13:1,2017-08-03T21:05:00Z,26.0630,-83.0730,1016.62,1111122 
COMPS,ioos:station:USF.COMPS:C13:1,2017-08-03T21:35:00Z,26.0630,-83.0730,1016.66,1111122 
COMPS,ioos:station:USF.COMPS:C13:1,2017-08-03T22:05:00Z,26.0630,-83.0730,1016.65,1111122 
COMPS,ioos:station:USF.COMPS:C13:1,2017-08-03T22:35:00Z,26.0630,-83.0730,1016.89,1111122 
COMPS,ioos:station:USF.COMPS:C13:1,2017-08-03T23:05:00Z,26.0630,-83.0730,1016.86,1111122 
COMPS,ioos:station:USF.COMPS:C13:1,2017-08-03T23:35:00Z,26.0630,-83.0730,1016.93,1111122 
COMPS,ioos:station:USF.COMPS:C13:1,2017-08-04T00:05:00Z,26.0630,-83.0730,1017.39,1111122 
COMPS,ioos:station:USF.COMPS:C13:1,2017-08-04T00:35:00Z,26.0630,-83.0730,1017.49,1111122 
COMPS,ioos:station:USF.COMPS:C13:1,2017-08-04T01:05:00Z,26.0630,-83.0730,1017.98,1111122 
COMPS,ioos:station:USF.COMPS:C13:1,2017-08-04T01:35:00Z,26.0630,-83.0730,1018.13,1111122 
COMPS,ioos:station:USF.COMPS:C13:1,2017-08-04T02:05:00Z,26.0630,-83.0730,1018.29,1111122 
COMPS,ioos:station:USF.COMPS:C13:1,2017-08-04T02:35:00Z,26.0630,-83.0730,1018.37,1111122 
COMPS,ioos:station:USF.COMPS:C13:1,2017-08-04T03:05:00Z,26.0630,-83.0730,1018.45,1111122 
COMPS,ioos:station:USF.COMPS:C13:1,2017-08-04T03:35:00Z,26.0630,-83.0730,1018.51,1111122 
COMPS,ioos:station:USF.COMPS:C13:1,2017-08-04T04:05:00Z,26.0630,-83.0730,1018.41,1111122 
COMPS,ioos:station:USF.COMPS:C13:1,2017-08-04T04:35:00Z,26.0630,-83.0730,1018.22,1111122 
COMPS,ioos:station:USF.COMPS:C13:1,2017-08-04T05:05:00Z,26.0630,-83.0730,1017.93,1111122 
COMPS,ioos:station:USF.COMPS:C13:1,2017-08-04T05:35:00Z,26.0630,-83.0730,1017.51,1111122 
COMPS,ioos:station:USF.COMPS:C13:1,2017-08-04T07:05:00Z,26.0630,-83.0730,1016.6,1111122 
COMPS,ioos:station:USF.COMPS:C13:1,2017-08-04T07:35:00Z,26.0630,-83.0730,1016.24,1111122 
COMPS,ioos:station:USF.COMPS:C13:1,2017-08-04T08:05:00Z,26.0630,-83.0730,1016.09,1111122 
COMPS,ioos:station:USF.COMPS:C13:1,2017-08-04T08:35:00Z,26.0630,-83.0730,1016.08,1111122 
COMPS,ioos:station:USF.COMPS:C13:1,2017-08-04T09:05:00Z,26.0630,-83.0730,1016.17,1111122 
COMPS,ioos:station:USF.COMPS:C13:1,2017-08-04T09:35:00Z,26.0630,-83.0730,1016.15,1111122 
COMPS,ioos:station:USF.COMPS:C13:1,2017-08-04T10:05:00Z,26.0630,-83.0730,1016.11,1111122 
COMPS,ioos:station:USF.COMPS:C13:1,2017-08-04T10:35:00Z,26.0630,-83.0730,1016.15,1111122 
COMPS,ioos:station:USF.COMPS:C13:1,2017-08-04T11:05:00Z,26.0630,-83.0730,1016.22,1111122 
COMPS,ioos:station:USF.COMPS:C13:1,2017-08-04T11:35:00Z,26.0630,-83.0730,1016.37,1111122 
COMPS,ioos:station:USF.COMPS:C13:1,2017-08-04T12:05:00Z,26.0630,-83.0730,1016.64,1111122 
COMPS,ioos:station:USF.COMPS:C13:1,2017-08-04T12:35:00Z,26.0630,-83.0730,1016.95,1111122 
COMPS,ioos:station:USF.COMPS:C13:1,2017-08-04T13:05:00Z,26.0630,-83.0730,1017.03,1111122 
COMPS,ioos:station:USF.COMPS:C13:1,2017-08-04T13:35:00Z,26.0630,-83.0730,1017.39,1111122 
COMPS,ioos:station:USF.COMPS:C13:1,2017-08-04T14:05:00Z,26.0630,-83.0730,1017.51,1111122 
COMPS,ioos:station:USF.COMPS:C13:1,2017-08-04T14:35:00Z,26.0630,-83.0730,1017.71,1111122 
COMPS,ioos:station:USF.COMPS:C13:1,2017-08-04T15:05:00Z,26.0630,-83.0730,1017.72,1111122 
COMPS,ioos:station:USF.COMPS:C13:1,2017-08-04T15:35:00Z,26.0630,-83.0730,1017.48,1111122 
COMPS,ioos:station:USF.COMPS:C13:1,2017-08-04T16:05:00Z,26.0630,-83.0730,1017.35,1111122 
COMPS,ioos:station:USF.COMPS:C13:1,2017-08-04T16:35:00Z,26.0630,-83.0730,1017.37,1111122 
COMPS,ioos:station:USF.COMPS:C13:1,2017-08-04T17:05:00Z,26.0630,-83.0730,1016.96,1111122 
COMPS,ioos:station:USF.COMPS:C13:1,2017-08-04T17:35:00Z,26.0630,-83.0730,1016.92,1111122 
COMPS,ioos:station:USF.COMPS:C13:1,2017-08-04T18:05:00Z,26.0630,-83.0730,1016.67,1111122 
COMPS,ioos:station:USF.COMPS:C13:1,2017-08-04T18:35:00Z,26.0630,-83.0730,1016.61,1111122 
COMPS,ioos:station:USF.COMPS:C13:1,2017-08-04T19:05:00Z,26.0630,-83.0730,1016.4,1111122 
COMPS,ioos:station:USF.COMPS:C13:1,2017-08-04T19:35:00Z,26.0630,-83.0730,1016.14,1111122 
COMPS,ioos:station:USF.COMPS:C13:1,2017-08-04T20:05:00Z,26.0630,-83.0730,1015.91,1111122 
COMPS,ioos:station:USF.COMPS:C13:1,2017-08-04T20:35:00Z,26.0630,-83.0730,1015.74,1111122 
COMPS,ioos:station:USF.COMPS:C13:1,2017-08-04T21:05:00Z,26.0630,-83.0730,1015.6,1111122 
COMPS,ioos:station:USF.COMPS:C13:1,2017-08-04T21:35:00Z,26.0630,-83.0730,1015.74,1111122 
COMPS,ioos:station:USF.COMPS:C13:1,2017-08-04T22:05:00Z,26.0630,-83.0730,1015.5,1111122 
COMPS,ioos:station:USF.COMPS:C13:1,2017-08-04T22:35:00Z,26.0630,-83.0730,1015.56,1111122 
COMPS,ioos:station:USF.COMPS:C13:1,2017-08-04T23:05:00Z,26.0630,-83.0730,1015.78,1111122 
COMPS,ioos:station:USF.COMPS:C13:1,2017-08-04T23:35:00Z,26.0630,-83.0730,1016.01,1111122 
COMPS,ioos:station:USF.COMPS:C13:1,2017-08-05T00:05:00Z,26.0630,-83.0730,1016.16,1111122 
COMPS,ioos:station:USF.COMPS:C13:1,2017-08-05T00:35:00Z,26.0630,-83.0730,1016.4,1111122 
COMPS,ioos:station:USF.COMPS:C13:1,2017-08-05T01:05:00Z,26.0630,-83.0730,1016.61,1111122 
COMPS,ioos:station:USF.COMPS:C13:1,2017-08-05T01:35:00Z,26.0630,-83.0730,1016.69,1111122 
COMPS,ioos:station:USF.COMPS:C13:1,2017-08-05T02:05:00Z,26.0630,-83.0730,1016.96,1111122 
COMPS,ioos:station:USF.COMPS:C13:1,2017-08-05T02:35:00Z,26.0630,-83.0730,1016.97,1111122 
COMPS,ioos:station:USF.COMPS:C13:1,2017-08-05T04:05:00Z,26.0630,-83.0730,1016.99,1111122 
COMPS,ioos:station:USF.COMPS:C13:1,2017-08-05T04:35:00Z,26.0630,-83.0730,1016.65,1111122 
COMPS,ioos:station:USF.COMPS:C13:1,2017-08-05T05:05:00Z,26.0630,-83.0730,1016.35,1111122 
COMPS,ioos:station:USF.COMPS:C13:1,2017-08-05T05:35:00Z,26.0630,-83.0730,1016.08,1111122 
COMPS,ioos:station:USF.COMPS:C13:1,2017-08-05T06:05:00Z,26.0630,-83.0730,1015.76,1111122 
COMPS,ioos:station:USF.COMPS:C13:1,2017-08-05T06:35:00Z,26.0630,-83.0730,1015.35,1111122 
COMPS,ioos:station:USF.COMPS:C13:1,2017-08-05T07:05:00Z,26.0630,-83.0730,1015.2,1111122 
COMPS,ioos:station:USF.COMPS:C13:1,2017-08-05T07:35:00Z,26.0630,-83.0730,1015.1,1111122 
COMPS,ioos:station:USF.COMPS:C13:1,2017-08-05T08:05:00Z,26.0630,-83.0730,1015.0,1111122 
COMPS,ioos:station:USF.COMPS:C13:1,2017-08-05T08:35:00Z,26.0630,-83.0730,1014.94,1111122 
COMPS,ioos:station:USF.COMPS:C13:1,2017-08-05T09:05:00Z,26.0630,-83.0730,1014.92,1111122 
COMPS,ioos:station:USF.COMPS:C13:1,2017-08-05T09:35:00Z,26.0630,-83.0730,1014.79,1111122 
COMPS,ioos:station:USF.COMPS:C13:1,2017-08-05T10:05:00Z,26.0630,-83.0730,1014.91,1111122 
COMPS,ioos:station:USF.COMPS:C13:1,2017-08-05T10:35:00Z,26.0630,-83.0730,1015.02,1111122 
COMPS,ioos:station:USF.COMPS:C13:1,2017-08-05T11:05:00Z,26.0630,-83.0730,1015.22,1111122 
COMPS,ioos:station:USF.COMPS:C13:1,2017-08-05T11:35:00Z,26.0630,-83.0730,1015.25,1111122 
COMPS,ioos:station:USF.COMPS:C13:1,2017-08-05T13:05:00Z,26.0630,-83.0730,1015.86,1111122 
COMPS,ioos:station:USF.COMPS:C13:1,2017-08-05T13:35:00Z,26.0630,-83.0730,1016.01,1111122 
COMPS,ioos:station:USF.COMPS:C13:1,2017-08-05T14:05:00Z,26.0630,-83.0730,1016.06,1111122 
COMPS,ioos:station:USF.COMPS:C13:1,2017-08-05T14:35:00Z,26.0630,-83.0730,1016.46,1111122 
COMPS,ioos:station:USF.COMPS:C13:1,2017-08-05T15:05:00Z,26.0630,-83.0730,1016.65,1111122 
COMPS,ioos:station:USF.COMPS:C13:1,2017-08-05T15:35:00Z,26.0630,-83.0730,1016.65,1111122 
COMPS,ioos:station:USF.COMPS:C13:1,2017-08-05T16:05:00Z,26.0630,-83.0730,1016.64,1111122 
COMPS,ioos:station:USF.COMPS:C13:1,2017-08-05T16:35:00Z,26.0630,-83.0730,1016.42,1111122 
COMPS,ioos:station:USF.COMPS:C13:1,2017-08-05T17:05:00Z,26.0630,-83.0730,1016.41,1111122 
COMPS,ioos:station:USF.COMPS:C13:1,2017-08-05T17:35:00Z,26.0630,-83.0730,1016.41,1111122 
COMPS,ioos:station:USF.COMPS:C13:1,2017-08-05T18:05:00Z,26.0630,-83.0730,1016.14,1111122 
COMPS,ioos:station:USF.COMPS:C13:1,2017-08-05T18:35:00Z,26.0630,-83.0730,1016.09,1111122 
COMPS,ioos:station:USF.COMPS:C13:1,2017-08-05T19:05:00Z,26.0630,-83.0730,1015.79,1111122 
COMPS,ioos:station:USF.COMPS:C13:1,2017-08-05T19:35:00Z,26.0630,-83.0730,1015.54,1111122 
COMPS,ioos:station:USF.COMPS:C13:1,2017-08-05T20:05:00Z,26.0630,-83.0730,1015.4,1111122 
COMPS,ioos:station:USF.COMPS:C13:1,2017-08-05T20:35:00Z,26.0630,-83.0730,1014.98,1111122 
COMPS,ioos:station:USF.COMPS:C13:1,2017-08-05T21:05:00Z,26.0630,-83.0730,1014.75,1111122 
COMPS,ioos:station:USF.COMPS:C13:1,2017-08-05T21:35:00Z,26.0630,-83.0730,1014.8,1111122 
COMPS,ioos:station:USF.COMPS:C13:1,2017-08-05T22:05:00Z,26.0630,-83.0730,1014.79,1111122 
COMPS,ioos:station:USF.COMPS:C13:1,2017-08-05T22:35:00Z,26.0630,-83.0730,1014.79,1111122 
COMPS,ioos:station:USF.COMPS:C13:1,2017-08-05T23:05:00Z,26.0630,-83.0730,1014.73,1111122 
COMPS,ioos:station:USF.COMPS:C13:1,2017-08-05T23:35:00Z,26.0630,-83.0730,1014.8,1111122 
COMPS,ioos:station:USF.COMPS:C13:1,2017-08-06T00:05:00Z,26.0630,-83.0730,1014.79,1111122 
COMPS,ioos:station:USF.COMPS:C13:1,2017-08-06T00:35:00Z,26.0630,-83.0730,1014.98,1111122 
COMPS,ioos:station:USF.COMPS:C13:1,2017-08-06T01:05:00Z,26.0630,-83.0730,1015.26,1111122 
COMPS,ioos:station:USF.COMPS:C13:1,2017-08-06T01:35:00Z,26.0630,-83.0730,1015.28,1111122 
COMPS,ioos:station:USF.COMPS:C13:1,2017-08-06T02:05:00Z,26.0630,-83.0730,1015.51,1111122 
COMPS,ioos:station:USF.COMPS:C13:1,2017-08-06T02:35:00Z,26.0630,-83.0730,1015.33,1111122 
COMPS,ioos:station:USF.COMPS:C13:1,2017-08-06T04:05:00Z,26.0630,-83.0730,1015.59,1111122 
COMPS,ioos:station:USF.COMPS:C13:1,2017-08-06T04:35:00Z,26.0630,-83.0730,1015.58,1111122 
COMPS,ioos:station:USF.COMPS:C13:1,2017-08-06T08:05:00Z,26.0630,-83.0730,1014.02,1111122 
COMPS,ioos:station:USF.COMPS:C13:1,2017-08-06T08:35:00Z,26.0630,-83.0730,1013.89,1111122 
COMPS,ioos:station:USF.COMPS:C13:1,2017-08-06T09:05:00Z,26.0630,-83.0730,1013.91,1111122 
COMPS,ioos:station:USF.COMPS:C13:1,2017-08-06T09:35:00Z,26.0630,-83.0730,1014.16,1111122 
COMPS,ioos:station:USF.COMPS:C13:1,2017-08-06T10:05:00Z,26.0630,-83.0730,1014.23,1111122 
COMPS,ioos:station:USF.COMPS:C13:1,2017-08-06T10:35:00Z,26.0630,-83.0730,1014.44,1111122 
COMPS,ioos:station:USF.COMPS:C13:1,2017-08-06T11:05:00Z,26.0630,-83.0730,1014.48,1111122 
COMPS,ioos:station:USF.COMPS:C13:1,2017-08-06T11:35:00Z,26.0630,-83.0730,1014.61,1111122 
COMPS,ioos:station:USF.COMPS:C13:1,2017-08-06T12:05:00Z,26.0630,-83.0730,1014.79,1111122 
COMPS,ioos:station:USF.COMPS:C13:1,2017-08-06T12:35:00Z,26.0630,-83.0730,1014.99,1111122 
COMPS,ioos:station:USF.COMPS:C13:1,2017-08-06T13:05:00Z,26.0630,-83.0730,1015.27,1111122 
COMPS,ioos:station:USF.COMPS:C13:1,2017-08-06T13:35:00Z,26.0630,-83.0730,1015.29,1111122 
COMPS,ioos:station:USF.COMPS:C13:1,2017-08-06T15:05:00Z,26.0630,-83.0730,1015.24,1111122 
COMPS,ioos:station:USF.COMPS:C13:1,2017-08-06T15:35:00Z,26.0630,-83.0730,1015.12,1111122 
COMPS,ioos:station:USF.COMPS:C13:1,2017-08-06T17:05:00Z,26.0630,-83.0730,1015.26,1111122 
COMPS,ioos:station:USF.COMPS:C13:1,2017-08-06T17:35:00Z,26.0630,-83.0730,1015.06,1111122 
COMPS,ioos:station:USF.COMPS:C13:1,2017-08-06T18:05:00Z,26.0630,-83.0730,1015.06,1111122 
COMPS,ioos:station:USF.COMPS:C13:1,2017-08-06T18:35:00Z,26.0630,-83.0730,1015.23,1111122 
COMPS,ioos:station:USF.COMPS:C13:1,2017-08-06T19:05:00Z,26.0630,-83.0730,1014.8,1111122 
COMPS,ioos:station:USF.COMPS:C13:1,2017-08-06T19:35:00Z,26.0630,-83.0730,1014.72,1111122 
COMPS,ioos:station:USF.COMPS:C13:1,2017-08-06T20:05:00Z,26.0630,-83.0730,1014.75,1111122 
COMPS,ioos:station:USF.COMPS:C13:1,2017-08-06T20:35:00Z,26.0630,-83.0730,1014.66,1111122 
COMPS,ioos:station:USF.COMPS:C13:1,2017-08-06T21:05:00Z,26.0630,-83.0730,1014.35,1111122 
COMPS,ioos:station:USF.COMPS:C13:1,2017-08-06T21:35:00Z,26.0630,-83.0730,1014.15,1111122 
COMPS,ioos:station:USF.COMPS:C13:1,2017-08-06T22:05:00Z,26.0630,-83.0730,1014.37,1111122 
COMPS,ioos:station:USF.COMPS:C13:1,2017-08-06T22:35:00Z,26.0630,-83.0730,1014.78,1111122 
COMPS,ioos:station:USF.COMPS:C13:1,2017-08-06T23:05:00Z,26.0630,-83.0730,1014.42,1111122 
COMPS,ioos:station:USF.COMPS:C13:1,2017-08-06T23:35:00Z,26.0630,-83.0730,1014.43,1111122 